Location: Krakow
(50.0830°N, 19.9170°E)
Time: 13:28:55
(UTC+01:00)

Vanguard 2 - Pass Details

Date: 16 December 2023
Orbit: 553 x 2919 km, 32.9° (Epoch: 24 February)

Event Time Altitude Azimuth Distance (km) Brightness Sun altitude
Rises 21:21:21 0° 265° (W) 6,571 12.7 -52.6°
Reaches altitude 10° 21:26:06 10° 258° (WSW) 5,685 12.2 -53.2°
Enters shadow 21:36:38 32° 225° (SW) 4,157 11.1 -54.6°
